Погода в Иэме

Погода в Иэме : погода сейчас, прогноз погоды и архив. Всё, что Вы хотите узнать о погоде в Иэме!

Поиск расширенной информации на нашем сайте:

Другие новости

Новости СМИ2

Главная страница сайта

Новости сайта

02.10.2013

Напоминаем, что на нашем новом сайте вы можете получить высокодетализированные прогнозы погоды по пунктам России, СНГ и мира (включающие важные для авиации метеовеличины, такие как направление и скорость ветра, видимость, явления погоды, количество и форма облачности, нижняя и верхняя граница облачности), а также ознакомиться с разнообразными материалами по авиационной метеорологии и подборкой полезных ссылок на эту тему.

Сайт Метеоцентр.Азия посвящён разработке технологий оптимизации авиаметеорологического обслуживания, включая проектирование и перспективное создание нескольких автоматизированных авиаметеорологических систем:
- система выпуска высокодетальных прогностических карт явлений погоды для нижнего воздушного пространства по России и ближнему зарубежью;
- система верификации прогнозов TAF (выпускаемых синоптиками официальных АМСГ РФ и ближнего зарубежья) и AUTOTAF (выпускаемых сайтом Метеоцентр.Азия) - выявление ошибок, онлайн-сопоставление с фактической погодой METAR, автоматическое внесение коррективов в прогнозы при резком отклонении фактической погоды от прогноза, подсчёт оправдываемости прогнозов по элементам и в целом;
- система обработки, анализа и отображения авиаметеорологической информации для применения провайдерами метеорологической информации.


Погода в Иэме - сегодня

Время (UTC), дата Ветер
(°,м/с) 
Видим.   Явления Облачность Т
(°С)
Тd
(°С)
f(%) Тe
(°С)
Pmin
(гПа)
dP
(гПа)
Po
(мм)
O2
(г/м3)
Тmin Tmax R s Состояние
почвы
00 17.01.17 тихо ()   20000 м    ясно 
-46.1 -48.6 77 -46  1048.9  -0.7  711  347  -46.6         
03 17.01.17 тихо ()   20000 м    ясно 
-44.7 -47 77 -45  1047.3  -0.9  711  344           
06 17.01.17 тихо ()   20000 м    3/0 верхняя 
[Ci fib]
-43.4 -46.3 73 -43  1045.3  -1.2  710  342           
09 17.01.17 тихо ()   20000 м    3/0 верхняя 
[Ci fib]
-45.5 -47.8 78 -46  1045.7  -0.6  709  345    -42.4       
12 17.01.17 100 (В) 20000 м    3/0 верхняя 
[Ci fib]
-45.5 -47.8 78 -47  1045  -0.6  709  345           
15 17.01.17 тихо ()   20000 м    3/0 верхняя 
[Ci fib]
-45.7 -48.6 73 -46  1044.3  -0.7  708  345           
18 17.01.17 тихо ()   20000 м    3/0 верхняя 
[Ci fib]
-46.2 -48.6 77 -46  1043.6  -0.9  708  345           
21 17.01.17 090 (В) 20000 м    4/0 верхняя 
[Ci fib]
-46.9 -49.6 74 -48  1043.3  -0.5  707  346  -47.1      25  равномерный
сухой снег
100% 
00 18.01.17 тихо ()   20000 м    4/0 верхняя 
[Ci fib]
-46.5 -49.6 71 -47  1041.9  -1.1  706  345  -47.3         
03 18.01.17 тихо ()   20000 м    4/0 верхняя 
[Ci fib]
-45.7 -48.6 73 -46  1039.8  -1.6  705  343           
06 18.01.17 110 (В) 20000 м    6/0 верхняя 
[Ci fib]
-44 -47 72 -49  1038.5  -0.4  705  341           
09 18.01.17 070 (В) 20000 м    6/0 верхняя 
[Ci fib]
-44.6 -47 77 -46  1039  0.2  705  342    -44       
12 18.01.17 тихо ()   20000 м    6/0 верхняя 
[Ci fib]
-47.2 -49.6 77 -47  1040.7  0.4  705  346           
15 18.01.17 тихо ()   20000 м    6/0 верхняя 
[Ci fib]
-47.7 -50.6 72 -48  1040.8  -0.1  705  346           
18 18.01.17 тихо ()   20000 м    4/0 верхняя 
[Ci fib]
-48.1 -50.6 75 -48  1040.9  -0.1  705  347           
21 18.01.17 тихо ()   20000 м    4/0 верхняя 
[Ci fib]
-48.6 -51.8 69 -49  1040.8  -0.2  705  348  -48.9      25  равномерный
сухой снег
100% 
00 19.01.17 тихо ()   20000 м    4/0 верхняя 
[Ci fib]
-48.5 -50.6 79 -49  1040.7  -0.1  705  348           
03 19.01.17 тихо ()   20000 м    4/0 верхняя 
[Ci fib]
-45 -47.8 74 -45  1038.3  -0.7  704  342           
06 19.01.17 тихо ()   20000 м    8/0 верхняя 
[Cs]
-45 -47.8 74 -45  1037.8  -0.5  704  342           
09 19.01.17 тихо ()   20000 м  слаб. снег  10/0 верхняя 
[Cs]
-43.1 -45.6 76 -43  1036.8  -0.2  704  339    -43.1  0.2     
12 19.01.17 300 (СЗ) 20000 м  {снег}  8/0 верхняя 
[Cs]
-44.8 -47.8 72 -46  1037.5  704  341           
15 19.01.17 тихо ()   20000 м    8/0 верхняя 
[Cs]
-46.6 -49.6 72 -47  1037.8  -0.4  704  344           
18 19.01.17 тихо ()   20000 м    6/0 верхняя 
[Cs]
-47.8 -50.6 72 -48  1038.1  -0.3  703  346           
21 19.01.17 тихо ()   20000 м    4/0 верхняя 
[Ci fib]
-48 -50.6 74 -48  1038.4  0.2  704  346  -48.3    0.0  25  равномерный
сухой снег
100% 
00 20.01.17 тихо ()   20000 м    3/0 верхняя 
[Ci fib]
-48.6 -51.8 69 -49  1038.6  704  347  -48.9         
Время (UTC), дата Ветер
(°,м/с) 
Видим.   Явления Облачность Т
(°С)
Тd
(°С)
f(%) Тe
(°С)
Pmin
(гПа)
dP
(гПа)
Po
(мм)
O2
(г/м3)
Тmin Tmax R s Состояние
почвы

Для получения пояснительной информации подведите курсор к названию столбца.

ПОГОДА в Иэме - архив

Всё, что Вы хотите узнать о погоде в Иэме - удобно и подробно!

Выберите нужную дату (начиная с 1 января 2015* года) и нажмите кнопку "Найти".
Будут отображены архивные сводки погоды по пункту Иэма, начиная с указанной даты.


Отображать данные в формате CSV (для использования в таблицах Excel)


Внимание! Наш архив погоды предназначен исключительно для личного некоммерческого использования в познавательных целях. Если Вам необходимы официальные справки о состоянии погоды (для производственных, юридических, коммерческих и т.п. целей), обращайтесь в органы Росгидромета.

*Примечание: данная дата относится к архиву по метеостанциям СССР (Россия, СНГ, Балтия).
Архив по метеостанциям Зарубежной Европы и Азии (кроме Китая) хранится 10 дней, по другим регионам земного шара (Китай, Африка, Америка, Австралия, Океания) - 1 день.

Иэма - район местоположения метеостанции


Название, широта, долгота, высота метеостанции:
Иэма 65.2°ш. 135.9°д. 676 м над ур. моря [Российская Федерация]

Дополнительная информация

В oтличие oт бoльшинства пoгoдных сайтoв мы публикуем пoдрoбную метеoинфoрмацию в детальнoм прoфессиoнальнoм фoрмате.

Характеристики температуры и влажнoсти вoздуха измеряются на высoте 2 м в тени вдали oт зданий и деревьев.
Скoрoсть ветра измеряется на высoте 10 м (на урoвне рoста челoвека скoрoсть ветра ниже в 1.5-2 раза). Если метеoстанция нахoдится в гoрoде или в лесу, тo скoрoсть ветра занижена на 2-4 м/с пo сравнению с oткрытым местoм. Скoрoсть ветра над акватoриями крупных рек и oзёр, а также на вершинах хoлмoв на 2-5 м/с выше, чем в oбычных услoвиях.
Атмoсфернoе давление в разных тoчках местнoсти мoжет значительнo oтличаться oт давления на метеoстанции, в зависимoсти oт услoвий рельефа (при пoдъёме на 10 м давление пoнижается примернo на 1 мм рт.ст.).